Tracking 31032 objects as of 14-Jul-2025
HD Live streaming from Space Station
objects crossing your sky now

STARLINK-6036

Track STARLINK-6036 now!
10-day predictions
STARLINK-6036 is classified as:


NORAD ID: 56800
Int'l Code: 2023-078AK
Perigee: 576.3 km
Apogee: 582.1 km
Inclination: 70.0 °
Period: 96.1 minutes
Semi major axis: 6950 km
RCS: Unknown
Launch date: May 31, 2023
Source: United States (US)
Launch site: AIR FORCE WESTERN TEST RANGE (AFWTR)
Your satellite tracking list
Your tracking list is empty




NASA's NSSDC Master Catalog

Two Line Element Set (TLE):
1 56800U 23078AK  25195.18742516 -.00000283  00000-0 -15889-4 0  9995
2 56800  69.9991 225.8505 0004124 270.4084  89.6602 14.98332076117213
Source of the keplerian elements: AFSPC